This demonstration page uses our WeatherBlox Daily Observations layout. Learn more.

Left ArrowRight Arrow

Hourly Observations for November 30, 2022

Temp ( °F °C ) Dew Point ( °F °C ) Humidity (%) Winds ( mph kmh ) Pressure ( in mb ) Visibility ( mi km ) Precip ( " mm )
2:51 am 02:51 Clear 37 2.8 23 -5 56 56 SE 6 9 30.04 1017 10 16 0.00 0.00
3:51 am 03:51 Clear 37 2.8 23 -5 56 56 SSE 12 19 30.04 1017 10 16 0.00 0.00
4:51 am 04:51 Clear 38 3.3 23 -5 54 54 SE 9 15 30.05 1018 10 16 0.00 0.00
5:51 am 05:51 Clear 37 2.8 23 -5 56 56 SE 9 15 30.07 1018 10 16 0.00 0.00
6:51 am 06:51 Clear 40 4.4 23 -5 50 50 ESE 10 17 30.09 1019 10 16 0.00 0.00
7:51 am 07:51 Sunny 42 5.6 23 -5 46 46 ESE 15 24 30.11 1020 10 16 0.00 0.00
8:51 am 08:51 Sunny 46 7.8 23 -5 40 40 ESE 14 22 30.10 1019 10 16 0.00 0.00
9:51 am 09:51 Sunny 52 11.1 24 -4.4 33 33 ESE 10 17 30.11 1020 10 16 0.00 0.00
10:51 am 10:51 Sunny 59 15 23 -5 25 25 E 13 20 30.08 1019 10 16 0.00 0.00
11:51 am 11:51 Sunny 61 16.1 24 -4.4 24 24 ESE 10 17 30.04 1017 10 16 0.00 0.00
12:51 pm 12:51 Sunny 62 16.7 24 -4.4 23 23 E 9 15 30.00 1016 10 16 0.00 0.00
1:51 pm 13:51 Sunny 66 18.9 25 -3.9 21 21 ESE 10 17 29.96 1015 10 16 0.00 0.00
2:51 pm 14:51 Sunny 67 19.4 25 -3.9 20 20 E 9 15 29.94 1014 10 16 0.00 0.00
3:51 pm 15:51 Sunny 68 20 25 -3.9 20 20 E 6 9 29.92 1013 10 16 0.00 0.00
4:51 pm 16:51 Sunny 65 18.3 24 -4.4 21 21 E 6 9 29.91 1013 10 16 0.00 0.00
5:51 pm 17:51 Clear 58 14.4 23 -5 26 26 Calm 29.94 1014 10 16 0.00 0.00
6:51 pm 18:51 Clear 55 12.8 24 -4.4 30 30 NNW 6 9 29.96 1015 10 16 0.00 0.00
7:51 pm 19:51 Clear 48 8.9 21 -6.1 34 34 SE 5 7 29.98 1015 10 16 0.00 0.00
8:51 pm 20:51 Clear 49 9.4 23 -5 36 36 Calm 29.98 1015 10 16 0.00 0.00
9:51 pm 21:51 Clear 45 7.2 22 -5.6 40 40 E 6 9 29.98 1015 10 16 0.00 0.00
10:51 pm 22:51 Clear 42 5.6 22 -5.6 44 44 SE 5 7 29.98 1015 10 16 0.00 0.00
11:51 pm 23:51 Clear 45 7.2 23 -5 41 41 SE 5 7 29.97 1015 10 16 0.00 0.00

Powered by AerisWeather